Погода Баку

Погода Баку : погода сейчас, прогноз погоды и архив. Всё, что Вы хотите узнать о погоде Баку!

Поиск расширенной информации на нашем сайте:

Другие новости

Новости СМИ2

Главная страница сайта

Новости сайта

03.07.2017

Напоминаем, что на нашем специализированном сайте Метеоцентр.Азия вы можете получить высокодетализированные автоматические прогнозы погоды по пунктам России, СНГ и мира в авиационном формате (включающие направление и скорость ветра, видимость, явления погоды, количество и форму облачности, нижнюю и верхнюю границу облачности).


Погода Баку - сегодня

Время (UTC), дата Ветер
(°,м/с) 
Видим.   Явления Облачность Т
(°С)
Тd
(°С)
f(%) Тe
(°С)
Pmin
(гПа)
dP
(гПа)
Po
(мм)
O2
(г/м3)
Тmin Tmax R s Состояние
почвы
15 18.11.17 тихо ()   20000 м  {дождь}  10/10 600 м 
[Cu med, cong]
+13.1 +10.4 84 +14  1024  -0.9  763  291           
18 18.11.17 230 (ЮЗ) 20000 м    ясно 
+12.2 +8.6 79 +13  1023.7  -0.3  762  293    +14.3     
21 18.11.17 230 (ЮЗ) 20000 м    ясно 
+12.3 +7.8 74 +12  1021.7  -2  761  292           
00 19.11.17 110 (В) 20000 м    ясно 
+11.2 +8 81 +11  1021.3  -0.4  761  293           
03 19.11.17 160 (Ю) 20000 м    ясно 
+11 +8.5 85 +11  1020.7  -0.6  760  293           
09 19.11.17 160 (Ю) 20000 м    4/0 средняя 
[Ac trans]
+16.5 +8.8 60 +17  1019.7  -1.7  759  287           
12 19.11.17 180 (Ю) 20000 м    4/0 средняя 
[Ac trans]
+16.4 +9.3 63 +16  1017.7  -2.1  758  286           
15 19.11.17 250 (З) 20000 м    6/0 средняя 
[Ac trans]
+14.5 +9.4 71 +14  1017.7  758  288           
21 19.11.17 170 (Ю) 20000 м    6/0 средняя 
[Ac trans]
+13.7 +10.3 80 +15  1016.5  -0.7  757  289           
00 20.11.17 170 (Ю) 20000 м    6/6 600 м 
[Sc]
+14.1 +9.4 73 +15  1016.2  -0.3  757  288           
03 20.11.17 190 (Ю) 20000 м    ясно 
+13.4 +5.8 60 +12  1014.7  -1.5  756  289           
06 20.11.17 200 (Ю) 8{16}  20000 м    10/6 600 м средняя 
[Sc|Ac trans]
+13.5 +5.9 60 +12  1013.6  -1.1  755  289  +13.2         
09 20.11.17 200 (Ю) 7{15}  20000 м    10/5 600 м средняя 
[Sc|Ac trans]
+15.9 +8 59 +15  1011.4  -2  753  286           
12 20.11.17 240 (ЮЗ) 7{15}  20000 м    3/0 верхняя 
[Ci sp]
+20.5 +4.8 36 +21  1011  -0.3  753  282           
15 20.11.17 240 (ЮЗ) 20000 м    ясно 
+18.5 +4 38 +19  1012.6  1.4  754  284           
18 20.11.17 240 (ЮЗ) 20000 м    ясно 
+16.5 +5 46 +17  1012.6  754  286    +21.6       
21 20.11.17 240 (ЮЗ) 20000 м    ясно 
+15.7 +7 56 +16  1011.3  -1.3  753  286           
00 21.11.17 240 (ЮЗ) 20000 м    ясно 
+16.6 +6.2 50 +17  1010.6  -0.7  753  285           
03 21.11.17 240 (ЮЗ) 20000 м    10/10 600 м 
[Sc]
+14.1 +3.8 50 +15  1009.9  -0.8  752  288           
06 21.11.17 180 (Ю) 20000 м    8/0 средняя, верхняя 
[Ac lent|Ci ing]
+15.3 +7.7 60 +15  1009.2  -0.4  752  286  +13.9         
09 21.11.17 180 (Ю) 20000 м    6/0 средняя 
[Ac lent]
+18.9 +8.1 49 +19  1007.1  -1.9  750  281           
12 21.11.17 230 (ЮЗ) 20000 м    6/0 средняя 
[Ac cuf]
+20.2 +7.3 43 +20  1004.9  -2.1  749  280           
15 21.11.17 150 (ЮВ) 20000 м    ясно 
+15.8 +10.7 72 +18  1004.8  -0.3  749  283           
21 21.11.17 180 (Ю) 20000 м    5/0 средняя 
[Ac As]
+14.4 +9.5 72 +15  1002.1  -1.5  747  284           
00 22.11.17 190 (Ю) 20000 м    ясно 
+18.1 +5.6 44 +18  1000.8  -1.3  746  281           
Время (UTC), дата Ветер
(°,м/с) 
Видим.   Явления Облачность Т
(°С)
Тd
(°С)
f(%) Тe
(°С)
Pmin
(гПа)
dP
(гПа)
Po
(мм)
O2
(г/м3)
Тmin Tmax R s Состояние
почвы

Для получения пояснительной информации подведите курсор к названию столбца.

ПОГОДА Баку - архив

Всё, что Вы хотите узнать о погоде Баку - удобно и подробно!

Выберите нужную дату (начиная с 1 января 2015* года) и нажмите кнопку "Найти".
Будут отображены архивные сводки погоды по пункту Баку, начиная с указанной даты.


Отображать данные в формате CSV (для использования в таблицах Excel)


Внимание! Наш архив погоды предназначен исключительно для личного некоммерческого использования в познавательных целях. Если Вам необходимы официальные справки о состоянии погоды (для производственных, юридических, коммерческих и т.п. целей), обращайтесь в органы Росгидромета.

*Примечание: данная дата относится к архиву по метеостанциям СССР (Россия, СНГ, Балтия).
Архив по метеостанциям Зарубежной Европы и Азии (кроме Китая) хранится 10 дней, по другим регионам земного шара (Китай, Африка, Америка, Австралия, Океания) - 1 день.

Баку - район местоположения метеостанции


Название, широта, долгота, высота метеостанции:
Баку (Дендропарк) 40.4°ш. 49.8°д. 61 м над ур. моря [Азербайджан]

Дополнительная информация

В oтличие oт бoльшинства пoгoдных сайтoв мы публикуем пoдрoбную метеoинфoрмацию в детальнoм прoфессиoнальнoм фoрмате.

Характеристики температуры и влажнoсти вoздуха измеряются на высoте 2 м в тени вдали oт зданий и деревьев.
Скoрoсть ветра измеряется на высoте 10 м (на урoвне рoста челoвека скoрoсть ветра ниже в 1.5-2 раза). Если метеoстанция нахoдится в гoрoде или в лесу, тo скoрoсть ветра занижена на 2-4 м/с пo сравнению с oткрытым местoм. Скoрoсть ветра над акватoриями крупных рек и oзёр, а также на вершинах хoлмoв на 2-5 м/с выше, чем в oбычных услoвиях.
Атмoсфернoе давление в разных тoчках местнoсти мoжет значительнo oтличаться oт давления на метеoстанции, в зависимoсти oт услoвий рельефа (при пoдъёме на 10 м давление пoнижается примернo на 1 мм рт.ст.).